TULLOCH (TUL)

Elevation: 515' · STANISLAUS R basin · Operator: US Bureau of Reclamation

Provisional data, subject to change.
Query executed Sunday at 0:16:13   clock

Select a sensor type for a plot of data.
Note: Reservoir Flows are daily averages.

Earlier

Date RES ELE    STORAGE    RES CHG    TOC STO    ABV TOC    OUTFLOW    INFLOW    EVAP    RIV REL    SPILL    DIS PWR   
 FEET   AF   AF   AF   AF   CFS   CFS   CFS   CFS   CFS   CFS  
10/24/2014 501.87 57347 -121 58522 -1175 990 936 7 0 0 990
10/25/2014 501.60 57049 -298 58304 -1255 1213 1070 7 0 0 1213
10/26/2014 501.06 56453 -596 58087 -1634 1141 842 1 0 0 1141
10/27/2014 502.18 57692 1239 57870 -178 1008 1637 4 0 0 1008
10/28/2014 502.62 58184 492 57652 532 862 1115 5 0 0 862
10/29/2014 502.74 58319 135 57435 884 771 844 5 0 0 771
10/30/2014 502.03 57524 -795 57217 307 620 224 5 0 0 620
10/31/2014 501.45 56883 -641 57000 -117 1147 832 8 0 0 1147
11/01/2014 500.78 56149 -734 57000 -851 1095 727 2 0 0 1095
11/02/2014 500.15 55466 -683 57000 -1534 999 658 3 0 0 999
11/03/2014 499.75 55036 -430 57000 -1964 906 692 3 0 0 906
11/04/2014 500.21 55531 495 57000 -1469 805 1059 4 0 0 805
11/05/2014 500.90 56279 748 57000 -721 712 1092 3 0 0 712
11/06/2014 501.74 57203 924 57000 203 614 1084 4 0 0 614
11/07/2014 501.71 57170 -33 57000 170 520 507 4 0 0 520
11/08/2014 502.18 57692 522 57000 692 384 650 3 0 0 384
11/09/2014 502.00 57490 -202 57000 490 337 242 7 0 0 337
11/10/2014 502.52 58072 582 57000 1072 290 589 6 0 0 290
11/11/2014 502.81 58397 325 57000 1397 248 415 3 0 0 248
11/12/2014 502.58 58140 -257 57000 1140 248 123 5 0 0 248
11/13/2014 502.69 58263 123 57000 1263 251 316 3 0 0 251
11/14/2014 502.26 57781 -482 57000 781 253 11 1 0 0 253
11/15/2014 501.83 57302 -479 57000 302 249 11 3 0 0 249
11/16/2014 501.40 56828 -474 57000 -172 251 15 3 0 0 251
11/17/2014 501.44 56872 44 57000 -128 254 277 1 0 0 254
11/18/2014 501.65 57104 232 57000 104 252 370 1 0 0 252
11/19/2014 501.38 56806 -298 57000 -194 252 109 7 0 0 252
11/20/2014 501.13 56530 -276 57000 -470 247 109 1 0 0 247
11/21/2014 500.84 56214 -316 -- -- 250 93 2 0 0 250
11/22/2014 -- -- -- -- -- -- -- -- -- -- --
11/23/2014 -- -- -- -- -- -- -- -- -- -- --

Later | Latest

Warning! This data is preliminary and subject to revision.

Show TUL Map | Plot TUL Data | 1 Month TUL Data | Real-Time TUL Data | TUL Info